Regional Weather Roundup
Issued by NWS

Home | Current Version | Previous Version | Text Only | Print | Product List | Glossary On
Versions: 1 2 3 4 5 6 7 8 9 10 11 12 13 14 15 16 17 18 19 20 21 22 23 24 25 26 27 28 29 30 31 32 33 34 35 36 37 38 39 40 41 42 43 44 45 46 47 48 49 50
000
ASUS45 KBOI 031110
RWRID

IDAHO REGIONAL WEATHER ROUNDUP
NATIONAL WEATHER SERVICE BOISE ID
400 AM MST SAT DEC 03 2016

NOTE: "FAIR" INDICATES FEW OR NO CLOUDS BELOW 12000 FEET
WITH NO SIGNIFICANT WEATHER AND/OR OBSTRUCTIONS TO VISIBILITY

IDZ012-014-031200-
SOUTHWEST IDAHO


CITY           SKY/WX    TMP DP  RH WIND       PRES   REMARKS
BOISE          CLOUDY    34  23  64 E6        30.24  WCI  29
CALDWELL       NOT AVBL
MOUNTAIN HOME  MOCLDY    30  25  80 E5        30.23F WCI  25
$$

IDZ016-017-031200-
SOUTHCENTRAL IDAHO


CITY           SKY/WX    TMP DP  RH WIND       PRES   REMARKS
BURLEY         CLOUDY    30  20  66 SW9       30.20  WCI  22
JEROME         CLOUDY    30  20  66 S7        30.20  WCI  23
TWIN FALLS     CLOUDY    31  17  56 SW7       30.21  WCI  24
$$

IDZ019>023-031200-
SOUTHEAST IDAHO


CITY           SKY/WX    TMP DP  RH WIND       PRES   REMARKS
IDAHO FALLS    CLOUDY    25  18  74 SW10      30.17  WCI  15
POCATELLO      CLOUDY    29  17  61 S14       30.19  WCI  18
REXBURG        CLOUDY    24  21  88 SW9       30.15  WCI  14
$$

IDZ006-010-011-018-031-032-031200-
CENTRAL IDAHO MOUNTAINS


CITY           SKY/WX    TMP DP  RH WIND       PRES   REMARKS
MCCALL         NOT AVBL
STANLEY          N/A     24  16  71 CALM      30.11S
SALMON         CLOUDY    28  23  80 CALM      30.10S
CHALLIS        NOT AVBL
$$

IDZ002-004-006-007-026-031200-
NORTHERN IDAHO


CITY           SKY/WX    TMP DP  RH WIND       PRES   REMARKS
LEWISTON       CLOUDY    42  32  67 S12       30.12R
LOWELL           N/A     34  32  92 CALM      30.19R
COEUR D`ALENE  CLOUDY    35  34  96 SW10      30.04F WCI  27
MULLAN PASS    MIX PCPN  25  23  92 VRB3G20   29.92F FOG
$$



USA.gov is the U.S. government's official web portal to all federal, state and local government web resources and services.